Location: Ferchesar
(52.6477°N, 12.4298°E)
Time: 16:50:25
(UTC+01:00)

Tiros 1 despin weight - All Passes

Search period start: 27 February 2021 00:00
Search period end: 09 March 2021 00:00
Orbit: 593 x 642 km, 48.2° (Epoch: 26 February)

Date Brightness Start Highest point End Pass type
(mag) Time Alt. Az. Time Alt. Az. Time Alt. Az.
27 Feb - 01:53:33 10° SSW 01:57:21 26° SSE 02:01:13 10° E visible
27 Feb - 03:33:52 10° WSW 03:38:19 47° S 03:42:50 10° E visible
27 Feb - 05:15:04 10° W 05:19:30 44° SSW 05:23:58 10° ESE visible
27 Feb - 06:56:49 10° W 07:00:24 22° SSW 07:03:58 10° SSE daylight
28 Feb - 00:30:35 10° S 00:32:50 13° SE 00:35:05 10° ESE night (unlit)
28 Feb - 02:09:16 10° SW 02:13:27 35° SSE 02:17:42 10° E visible
28 Feb - 03:50:03 10° WSW 03:54:34 50° S 03:59:06 10° ESE visible
28 Feb - 05:31:25 10° W 05:35:41 36° SSW 05:39:58 10° SE visible
28 Feb - 07:13:50 10° WSW 07:16:21 14° SW 07:18:52 10° S daylight
01 Mar - 00:45:21 10° SSW 00:48:46 21° SSE 00:52:13 10° E night (unlit)
01 Mar - 02:25:14 10° WSW 02:29:37 43° SSE 02:34:03 10° E visible
01 Mar - 04:06:19 10° W 04:10:48 47° S 04:15:18 10° ESE visible
01 Mar - 05:47:52 10° W 05:51:47 27° SSW 05:55:43 10° SSE visible
02 Mar - 01:00:49 10° SW 01:04:48 29° SSE 01:08:50 10° E night (unlit)
02 Mar - 02:41:22 10° WSW 02:45:50 49° S 02:50:21 10° E visible
02 Mar - 04:22:37 10° W 04:27:00 41° SSW 04:31:24 10° SE visible
02 Mar - 06:04:34 10° WSW 06:07:48 19° SW 06:11:03 10° S visible
02 Mar - 23:37:24 10° S 23:40:12 16° SE 23:43:03 10° ESE night (unlit)
03 Mar - 01:16:40 10° SW 01:20:56 38° SSE 01:25:15 10° E night (unlit)
03 Mar - 02:57:34 10° WSW 03:02:04 49° S 03:06:36 10° ESE visible
03 Mar - 04:39:00 10° W 04:43:09 32° SSW 04:47:18 10° SE visible
03 Mar - 06:22:04 10° WSW 06:23:43 12° SW 06:25:23 10° SSW daylight
03 Mar - 23:52:31 10° SSW 23:56:11 24° SSE 23:59:54 10° E night (unlit)
04 Mar - 01:32:42 10° WSW 01:37:07 46° S 01:41:35 10° E night (unlit)
04 Mar - 03:13:51 10° W 03:18:17 45° S 03:22:45 10° ESE visible
04 Mar - 04:55:32 10° W 04:59:13 23° SSW 05:02:55 10° SSE visible
04 Mar - 22:29:56 10° SSE 22:31:41 12° SE 22:33:28 10° ESE night (unlit)
05 Mar - 00:08:09 10° SW 00:12:15 33° SSE 00:16:24 10° E night (unlit)
05 Mar - 01:48:52 10° WSW 01:53:20 49° S 01:57:51 10° ESE night (unlit)
05 Mar - 03:30:11 10° W 03:34:29 37° SSW 03:38:47 10° SE visible
05 Mar - 05:12:25 10° WSW 05:15:11 16° SW 05:17:57 10° S visible
05 Mar - 22:44:24 10° SSW 22:47:36 19° SSE 22:50:50 10° ESE night (unlit)
06 Mar - 00:24:05 10° SW 00:28:24 41° SSE 00:32:47 10° E night (unlit)
06 Mar - 02:05:07 10° W 02:09:34 48° S 02:14:04 10° ESE night (unlit)
06 Mar - 03:46:37 10° W 03:50:35 28° SSW 03:54:35 10° SSE visible
06 Mar - 22:59:46 10° SSW 23:03:37 27° SSE 23:07:31 10° E night (unlit)
07 Mar - 00:40:11 10° WSW 00:44:36 47° S 00:49:05 10° E night (unlit)
07 Mar - 02:21:24 10° W 02:25:46 42° SSW 02:30:11 10° ESE night (unlit)
07 Mar - 04:03:15 10° W 04:06:37 20° SSW 04:10:00 10° SSE visible
07 Mar - 21:36:34 10° S 21:39:03 15° SE 21:41:34 10° ESE night (unlit)
07 Mar - 23:15:33 10° SW 23:19:43 36° SSE 23:23:57 10° E night (unlit)
08 Mar - 00:56:24 10° WSW 01:00:50 49° S 01:05:20 10° ESE night (unlit)
08 Mar - 02:37:46 10° W 02:41:56 33° SSW 02:46:08 10° SE night (unlit)
08 Mar - 04:20:29 10° WSW 04:22:33 13° SW 04:24:37 10° SSW visible
08 Mar - 21:51:31 10° SSW 21:55:00 22° SSE 21:58:32 10° E night (unlit)
08 Mar - 23:31:33 10° WSW 23:35:53 44° S 23:40:18 10° E night (unlit)
